Location: Unspecified
(0.0000°N, 0.0000°E)
Time: 22:52:37
(UTC+02:00)

ISS - Visible Passes

Search period start: 23 July 2017 00:00
Search period end: 02 August 2017 00:00
Orbit: 400 x 408 km, 51.6° (Epoch: 24 July)

Date Brightness Start Highest point End Pass type
(mag) Time Alt. Az. Time Alt. Az. Time Alt. Az.
24 Jul -1.4 07:33:51 10° N 07:36:44 29° NE 07:39:37 10° ESE visible
24 Jul -0.4 20:45:21 10° W 20:46:56 13° NW 20:48:33 10° NNW visible
25 Jul -0.3 06:43:20 10° NNE 06:44:28 11° NE 06:45:35 10° ENE visible
26 Jul -3.8 07:25:15 10° NW 07:28:28 60° SW 07:31:43 10° SSE visible
27 Jul -2.6 06:34:08 18° N 06:36:12 41° NE 06:39:19 10° SE visible
28 Jul -2.1 07:20:22 15° SW 07:20:22 15° SW 07:22:12 10° SSW visible
